FALCON 9 DEB (52652 NORAD) Tracking and Keplerian Element Data

This shows tracking and keplerian element data for the satellite.

Feedback or suggestion? Click here.




ElementValue
Catalog52652
NameFALCON 9 DEB
Epoch Orbit513
Epoch Day167.01143715
Epoch Year2022
RAAN275.8635
Inclination53.2053
Eccentricity0.0017978
Argument of Perigee355.8809
Mean Anonmoly4.2073
Mean Motion16.03436685
Decay Rate0.00514373
L11 52652U 22052BG 22167.01143715 .00514373 13252-3 78956-3 0 9998
L22 52652 53.2053 275.8635 0017978 355.8809 4.2073 16.03436685 5133

Live tracking and technical data element details for FALCON 9 DEB (NORAD 52652). FALCON 9 DEB can be tracked NOW for your location showing map with azimuth and elevation plus other details from your city location.

Track the satellite on the map from your city or location and see movement details for azimuth, elevation, latitude, longitude, range, height, and movement on the map or in text.







IsCatalogInMostPopularTable: catalog: 52652, numindb: 1
Update: records affected: 1



GetName: 52652 FALCON 9 DEB

Hit Count: updated at: Mon, 27 Jun 2022 05:55:28 GMT